Regional Weather Roundup
Issued by NWS Sioux Falls, SD

Home | Current Version | Previous Version | Graphics & Text | Print | Product List | Glossary On
Versions: 1 2 3 4 5 6 7 8 9 10 11 12 13 14 15 16 17 18 19 20 21 22 23 24 25 26 27 28 29 30 31 32 33 34 35 36 37 38 39 40 41 42 43 44 45 46 47 48 49 50
000
ASUS43 KFSD 010502
RWRFSD

WEATHER ROUNDUP FOR SE SOUTH DAKOTA/SW MINNESOTA/NW IOWA
NATIONAL WEATHER SERVICE SIOUX FALLS SD
1200 AM CDT WED OCT 01 2014

NOTE: "FAIR" INDICATES FEW OR NO CLOUDS BELOW 12,000 FEET WITH NO
SIGNIFICANT WEATHER AND OR OBSTRUCTIONS TO VISIBILITY.


SDZ038>040-050-052>070-010600-
SOUTHEAST SOUTH DAKOTA

CITY           SKY/WX    TMP DP  RH WIND       PRES   REMARKS
CHAMBERLAIN    MOCLDY    55  48  77 CALM      29.67S
HURON          CLEAR     62  59  90 S9        29.67S
MADISON        CLOUDY    63  63 100 S15G21    29.74S
MITCHELL       MOCLDY    63  61  93 SE10      29.70F
SIOUX FALLS    CLOUDY    62  59  90 S12       29.76S
WINNER         FAIR      63  46  54 S7        29.69R
YANKTON        CLOUDY    63  61  94 SE9       29.74S
$$

MNZ071-072-080-081-089-090-097-098-010600-
SOUTHWEST MINNESOTA

CITY           SKY/WX    TMP DP  RH WIND       PRES   REMARKS
FAIRMONT       CLOUDY    57  52  82 SE16      29.82F
JACKSON        MOCLDY    59  55  88 S12       29.82F
LUVERNE        CLOUDY    61  59  94 S14       29.78S
MARSHALL       CLOUDY    61  55  82 S18G25    29.75S
MONTEVIDEO     PTCLDY    57  57 100 S9        29.75S
PIPESTONE      CLOUDY    61  57  88 S15G22    29.77S
REDWOOD FALLS  PTCLDY    59  56  89 SE16      29.78S
TRACY          PTCLDY    60  58  92 S14G21    29.77S
WINDOM         PTCLDY    57  55  94 SE15      29.80F
WORTHINGTON    CLOUDY    59  57  94 S14G20    29.80S
$$

IAZ001>003-012>014-020>022-031-032-NEZ013-014-SDZ071-010600-
NORTHWEST IOWA

CITY           SKY/WX    TMP DP  RH WIND       PRES   REMARKS
CHEROKEE       MOCLDY    61  61 100 SE7       29.79F
DENISON        CLOUDY    63  63 100 SE10G18   29.77F
ESTHERVILLE    CLOUDY    58  56  93 SE15      29.82F
LE MARS          N/A     61  61 100 SE8       29.77F
ORANGE CITY    CLOUDY    63  59  88 SE7G16    29.78S FOG
SHELDON        CLOUDY    61  61 100 SE13G22   29.77F
SIOUX CITY     PTCLDY    61  60  97 SE8       29.76F
SPENCER        CLOUDY    60  58  92 SE13      29.81F
STORM LAKE     MOCLDY    61  59  94 SE16      29.81F FOG
$$

ABBREVIATIONS USED IN REMARKS
   TC - TEMPERATURE IN CELSIUS
  WCI - WIND CHILL INDEX
   HX - HEAT INDEX
  VSB - VISIBILITY



USA.gov is the U.S. government's official web portal to all federal, state and local government web resources and services.